[[{"header":{"parameterUnit":"m.s-1","parameterCategory":1,"la1":30.2992,"la2":30.254,"lo1":-89.0895,"lo2":-89.0443,"dy":0.0025,"dx":0.0025,"nx":19,"ny":19,"refTime":"2026-05-01T09:00:00:Z","depth":0,"parameterNumber":2,"parameterNumberName":"U-component_of_WINDS"},"data":[0,0,0,-2.1718,-2.172,-2.1797,-2.1797,-2.1905,-2.1906,0,0,0,0,0,0,0,0,0,0,0,-2.17,-2.1701,-2.1718,-2.172,-2.1797,-2.1797,-2.1904,-2.1906,0,0,0,0,0,0,0,0,0,0,0,-2.1699,-2.17,-2.1702,-2.172,-2.1797,-2.1797,-2.1904,-2.1843,0,0,0,0,0,0,0,0,0,0,-2.1767,-2.1755,-2.17,-2.1702,-2.172,-2.1797,-2.1797,-2.184,-2.1847,-2.1873,0,-2.1898,0,-2.1903,-2.1913,-2.1914,0,0,0,-2.1716,-2.1749,-2.1765,-2.1702,-2.1721,-2.1796,-2.1761,-2.1844,-2.1851,-2.1882,-2.1899,-2.1903,-2.1905,-2.1914,-2.1915,-2.2077,-2.2078,0,0,-2.1712,-2.1717,-2.176,-2.177,-2.1758,-2.1759,-2.1763,-2.1848,-2.1867,-2.1899,-2.1905,-2.1907,-2.1915,-2.1916,-2.2077,-2.2078,0,0,0,-2.1702,-2.1714,-2.1728,-2.1766,-2.1779,-2.1761,-2.1766,-2.1863,-2.1867,-2.1906,-2.1908,-2.1915,-2.1917,-2.2076,-2.2077,-2.2127,0,0,0,-2.1699,-2.1708,-2.1726,-2.173,-2.1778,-2.1822,-2.178,-2.1861,-2.1871,-2.1908,-2.1916,-2.1918,-2.2075,-2.2076,-2.2124,-2.2151,0,0,0,-2.1693,-2.1707,-2.172,-2.173,-2.1763,-2.1821,-2.183,-2.1863,-2.1872,-2.1914,-2.1918,-2.2074,-2.2076,-2.2121,-2.2146,-2.2196,0,0,0,-2.1688,-2.1764,-2.1721,-2.1806,-2.1762,-2.1851,-2.1829,-2.1895,-2.1936,-2.1916,-2.2075,-2.2077,-2.212,-2.2143,-2.2192,-2.224,-2.2259,0,0,-2.1787,-2.1776,-2.1826,-2.1789,-2.1887,-2.1839,-2.1943,-2.1977,-2.1977,-2.2044,-2.2048,-2.2125,-2.2145,-2.2195,-2.2366,-2.2382,0,0,0,-2.1859,-2.1895,-2.1919,-2.1959,-2.1986,-2.2012,-2.2029,-2.2041,-2.2098,-2.2012,-2.2156,-2.2168,-2.2197,-2.2219,-2.2233,-2.2257,-2.2087,-2.2087,-2.2086,-2.2006,-2.2001,-2.2083,-2.2087,-2.2126,-2.2142,-2.2173,-2.2193,-2.2177,-2.221,-2.2231,-2.2335,-2.2361,-2.2371,-2.2397,-2.2254,-2.2254,-2.2255,-2.2255,-2.2151,-2.2202,-2.2177,-2.2249,-2.2243,-2.2302,-2.2321,-2.2307,-2.2363,-2.2319,-2.2345,-2.23,-2.2389,-2.2411,-2.2258,-2.2258,-2.2257,-2.2257,-2.2257,-2.2249,-2.2272,-2.2285,-2.2341,-2.2384,-2.2385,-2.2439,-2.2431,-2.2425,-2.245,-2.2471,-2.247,-2.2469,-2.246,-2.246,-2.2461,-2.2461,-2.2461,-2.2461,-2.2345,-2.2358,-2.2404,-2.2438,-2.2462,-2.2493,-2.2508,-2.2532,-2.2556,-2.2547,-2.2547,-2.2528,-2.2398,-2.2366,-2.2467,-2.2466,-2.2465,-2.2465,-2.2464,-2.2497,-2.2461,-2.2532,-2.2556,-2.2595,-2.2639,-2.2628,-2.2676,-2.2694,-2.2721,-2.2696,-2.2601,-2.259,-2.2579,-2.2553,-2.2696,-2.2696,-2.2696,-2.2696,-2.258,-2.2573,-2.2644,-2.2683,-2.2719,-2.2716,-2.2797,-2.281,-2.2818,-2.2829,-2.2806,-2.277,-2.2759,-2.2755,-2.2741,-2.2716,-2.2898,-2.2898,-2.2898,-2.2674,-2.2669,-2.274,-2.2746,-2.2776,-2.2801,-2.2878,-2.2923,-2.2924,-2.2906,-2.2837,-2.2829,-2.277,-2.2751,-2.2734,-2.2712,-2.2666,0,0]},{"header":{"parameterUnit":"m.s-1","parameterCategory":1,"la1":30.2992,"la2":30.254,"lo1":-89.0895,"lo2":-89.0443,"dy":0.0025,"dx":0.0025,"nx":19,"ny":19,"refTime":"2026-05-01T09:00:00:Z","depth":0,"parameterNumber":3,"parameterNumberName":"V-component_of_WINDS"},"data":[0,0,0,-8.7032,-8.7036,-8.7183,-8.7183,-8.7381,-8.7383,0,0,0,0,0,0,0,0,0,0,0,-8.6998,-8.7,-8.7032,-8.7036,-8.7183,-8.7183,-8.7381,-8.7383,0,0,0,0,0,0,0,0,0,0,0,-8.6997,-8.7,-8.7002,-8.7037,-8.7183,-8.7183,-8.738,-8.7265,0,0,0,0,0,0,0,0,0,0,-8.7121,-8.7099,-8.6999,-8.7002,-8.7038,-8.7182,-8.7183,-8.7259,-8.7272,-8.732,0,-8.7368,0,-8.7379,-8.7397,-8.7398,0,0,0,-8.7028,-8.7088,-8.712,-8.7002,-8.7039,-8.7182,-8.7114,-8.7267,-8.7281,-8.7338,-8.7371,-8.7378,-8.7383,-8.7399,-8.74,-8.7712,-8.7714,0,0,-8.702,-8.7029,-8.711,-8.713,-8.7112,-8.711,-8.7119,-8.7275,-8.7311,-8.7372,-8.7382,-8.7386,-8.74,-8.7402,-8.771,-8.7712,0,0,0,-8.7002,-8.7023,-8.7051,-8.7122,-8.7148,-8.7114,-8.7125,-8.7304,-8.7312,-8.7384,-8.7388,-8.7401,-8.7404,-8.7708,-8.7711,-8.7813,0,0,0,-8.6997,-8.7013,-8.7048,-8.7055,-8.7146,-8.7228,-8.715,-8.7301,-8.7319,-8.7387,-8.7402,-8.7406,-8.7706,-8.771,-8.7806,-8.7859,0,0,0,-8.6985,-8.7011,-8.7037,-8.7055,-8.7119,-8.7226,-8.7243,-8.7305,-8.7322,-8.7398,-8.7407,-8.7705,-8.7709,-8.78,-8.7849,-8.7946,0,0,0,-8.6975,-8.7122,-8.7038,-8.7204,-8.7118,-8.7289,-8.7242,-8.7368,-8.7445,-8.7403,-8.7706,-8.7711,-8.7798,-8.7842,-8.7939,-8.803,-8.8069,0,0,-8.7165,-8.7145,-8.7242,-8.7172,-8.7361,-8.7265,-8.7468,-8.7529,-8.7525,-8.7649,-8.7657,-8.7808,-8.7848,-8.7945,-8.8281,-8.8312,0,0,0,-8.7305,-8.7375,-8.7423,-8.75,-8.7553,-8.7602,-8.7632,-8.7654,-8.776,-8.7592,-8.7868,-8.7892,-8.7948,-8.7991,-8.8017,-8.8066,-8.7731,-8.773,-8.773,-8.7586,-8.7579,-8.7739,-8.775,-8.7824,-8.7855,-8.7915,-8.795,-8.7916,-8.7982,-8.8019,-8.8224,-8.8275,-8.8295,-8.8345,-8.8065,-8.8066,-8.8066,-8.8066,-8.7866,-8.7964,-8.7921,-8.8061,-8.8051,-8.8167,-8.8202,-8.8175,-8.8281,-8.8195,-8.8244,-8.8152,-8.8329,-8.8373,-8.8074,-8.8072,-8.8071,-8.8071,-8.807,-8.805,-8.8096,-8.8124,-8.8237,-8.8323,-8.8327,-8.8432,-8.8418,-8.8404,-8.8453,-8.8491,-8.8489,-8.8487,-8.8472,-8.8473,-8.8473,-8.8474,-8.8475,-8.8475,-8.8231,-8.8259,-8.8352,-8.8423,-8.8471,-8.8533,-8.8567,-8.8613,-8.8661,-8.8642,-8.8642,-8.8603,-8.8348,-8.8285,-8.8486,-8.8484,-8.8483,-8.8482,-8.8481,-8.8518,-8.8452,-8.8595,-8.8645,-8.8727,-8.8815,-8.8796,-8.8893,-8.8929,-8.8981,-8.8932,-8.8746,-8.8723,-8.8702,-8.865,-8.8933,-8.8933,-8.8933,-8.8933,-8.8675,-8.8663,-8.8808,-8.8888,-8.8965,-8.8963,-8.9124,-8.9151,-8.9168,-8.919,-8.9147,-8.9076,-8.9055,-8.9044,-8.9016,-8.8967,-8.9325,-8.9325,-8.9325,-8.8852,-8.8848,-8.8989,-8.9009,-8.9073,-8.9128,-8.9279,-8.9371,-8.9375,-8.9341,-8.9207,-8.919,-8.9076,-8.9039,-8.9002,-8.8958,-8.8868,0,0]}]]